Location: Brno
(49.2000°N, 16.6330°E)
Time: 01:41:22
(UTC+02:00)

Vanguard 3 - Pass Details

Date: 04 August 2021
Orbit: 510 x 3260 km, 33.3° (Epoch: 19 September)

Event Time Altitude Azimuth Distance (km) Brightness Sun altitude
Rises 20:43:41 0° 259° (WSW) 5,942 12.4 -3.0°
Reaches altitude 10° 20:47:23 10° 253° (WSW) 5,243 11.9 -3.5°
Maximum altitude 21:02:45 45° 188° (S) 3,887 10.4 -5.6°
Drops below altitude 10° 21:20:42 10° 125° (SE) 6,046 10.9 -8.0°
Enters shadow 21:21:20 - 124° (SE) 6,157 10.9 -8.1°
Sets 21:25:23 0° 119° (ESE) 6,884 - -8.6°
